Погода в Порзове

Россия / Пензенская область     52°39′31″N   46°03′25″E
темп.,
°C
ветер,
м/с
пор.,
м/с
влажн.,
%
обл.,
%
осадки,
мм/ч
давл.,
гПа
погр.,
м
8 марта, пн
пн800:00−5юз101794100 1.2 1001963
03:00−3зюз91693100 2.0 10001090
06:00−5зюз6158388 0.4 1001555
09:00−5зюз6128456 0.4 1003643
12:00−2зюз7108119 0.0 10031248
15:00−2зюз7118659 0.3 10021111
18:00−6з5148571 0.3 1003466
21:00−9з4109066 0.4 1007206
9 марта, вт
вт900:00−13зсз34930 0.0 100950
03:00−16з22950 0.0 101020
06:00−17зюз11980 0.0 101120
09:00−12зсз11930 0.0 101164
12:00−8сз228647 0.0 1011378
15:00−7сз348873 0.1 1011548
18:00−10сз599399 0.2 1012287
21:00−13сз499696 0.3 1014237
10 марта, ср
ср1000:00−17сз489656 0.0 1014134
03:00−19сз4810048 0.0 1016157
06:00−21сз499999 0.0 1017190
09:00−18сз5995100 0.1 1019372
12:00−16сз6889100 0.0 1020636
15:00−16сз6988100 0.1 1021752
18:00−19ссз51094100 0.1 1023370
21:00−23ссз5109482 0.1 1025231
11 марта, чт
чт1100:00−26ссз47998 0.0 1027111
03:00−27ссз449917 0.0 102978
06:00−28ссз449921 0.0 103074
09:00−22ссз479518 0.0 1031240
12:00−17сз478914 0.0 1031433
15:00−14сз588936 0.0 1030500
18:00−18зсз479774 0.0 1031115
21:00−20сз489865 0.0 1032155
12 марта, пт
пт1200:00−21ссз479938 0.0 1033100
03:00−21ссз2310019 0.0 103320
06:00−22ссз33990 0.0 103421
09:00−16ссз23930 0.0 1035119
12:00−10ссз12820 0.0 1035239
15:00−8зюз23830 0.0 1035382
18:00−14з22940 0.0 103520
21:00−17юз22870 0.0 103720